"read_dt","SO2 (ppb)","flags","PMT voltage (V)","lamp voltage (V)","lamp intensity (Hz)","internal temp (C)","react chamber temp (C)","sample flow (l/min)","pres (mmHg)","SO2 bkg (ppb)","SO2 coefficient"
2015-08-12 00:00:00,1474E-3,5C000000,-0724,0821,12160,026.1,045.4,0.478,735.6,01.18,0.508
2015-08-12 00:01:00,1557E-3,5C000000,-0724,0820,12315,026.1,045.4,0.478,735.5,01.18,0.508
2015-08-12 00:02:00,1682E-3,5C000000,-0724,0820,12256,026.1,045.4,0.478,735.5,01.18,0.508
2015-08-12 00:03:00,1729E-3,5C000000,-0724,0821,12312,026.2,045.4,0.479,735.5,01.18,0.508
2015-08-12 00:04:00,1595E-3,5C000000,-0724,0821,12280,026.1,045.4,0.478,735.5,01.18,0.508
2015-08-12 00:05:00,1732E-3,5C000000,-0724,0821,12294,026.1,045.4,0.478,735.5,01.18,0.508
2015-08-12 00:06:00,1523E-3,5C000000,-0724,0821,12331,026.1,045.4,0.478,735.5,01.18,0.508
2015-08-12 00:07:00,1551E-3,5C000000,-0724,0820,12333,026.1,045.4,0.478,735.5,01.18,0.508
2015-08-12 00:08:00,1691E-3,5C000000,-0724,0821,12205,026.1,045.4,0.478,735.5,01.18,0.508
2015-08-12 00:09:00,1564E-3,5C000000,-0724,0822,12286,026.1,045.4,0.478,735.5,01.18,0.508
2015-08-12 00:10:00,1594E-3,5C000000,-0724,0821,12209,026.1,045.4,0.478,735.5,01.18,0.508
2015-08-12 00:11:00,1539E-3,5C000000,-0724,0821,12175,026.1,045.4,0.478,735.5,01.18,0.508
2015-08-12 00:12:00,1612E-3,5C000000,-0724,0820,12299,026.2,045.4,0.478,735.5,01.18,0.508
2015-08-12 00:13:00,1656E-3,5C000000,-0724,0821,12323,026.1,045.4,0.479,735.5,01.18,0.508
2015-08-12 00:14:00,1606E-3,5C000000,-0724,0821,12423,026.1,045.4,0.478,735.4,01.18,0.508
2015-08-12 00:15:00,1670E-3,5C000000,-0724,0820,12288,026.2,045.4,0.478,735.5,01.18,0.508
2015-08-12 00:16:00,1565E-3,5C000000,-0724,0821,12343,026.1,045.4,0.478,735.5,01.18,0.508
2015-08-12 00:17:00,1708E-3,5C000000,-0724,0821,12258,026.2,045.4,0.478,735.4,01.18,0.508
2015-08-12 00:18:00,1546E-3,5C000000,-0724,0821,12272,026.2,045.4,0.478,735.4,01.18,0.508
2015-08-12 00:19:00,1609E-3,5C000000,-0724,0821,12340,026.1,045.4,0.478,735.4,01.18,0.508
2015-08-12 00:20:00,1635E-3,5C000000,-0724,0821,12286,026.1,045.4,0.478,735.4,01.18,0.508
2015-08-12 00:21:00,1599E-3,5C000000,-0724,0821,12277,026.1,045.4,0.478,735.4,01.18,0.508
2015-08-12 00:22:00,1423E-3,5C000000,-0724,0821,12253,026.1,045.4,0.478,735.4,01.18,0.508
2015-08-12 00:23:00,1733E-3,5C000000,-0724,0821,12215,026.2,045.4,0.478,735.4,01.18,0.508
2015-08-12 00:24:00,1558E-3,5C000000,-0724,0822,12303,026.2,045.4,0.478,735.5,01.18,0.508
2015-08-12 00:25:00,1605E-3,5C000000,-0724,0820,12280,026.1,045.4,0.478,735.5,01.18,0.508
2015-08-12 00:26:00,1688E-3,5C000000,-0724,0820,12253,026.1,045.4,0.478,735.5,01.18,0.508
2015-08-12 00:27:00,1564E-3,5C000000,-0724,0821,12436,026.1,045.4,0.478,735.5,01.18,0.508
2015-08-12 00:28:00,1611E-3,5C000000,-0724,0820,12243,026.1,045.4,0.478,735.5,01.18,0.508
2015-08-12 00:29:00,1758E-3,5C000000,-0724,0821,12363,026.2,045.4,0.478,735.5,01.18,0.508
2015-08-12 00:30:00,1596E-3,5C000000,-0724,0821,12338,026.1,045.4,0.478,735.4,01.18,0.508
2015-08-12 00:31:00,1688E-3,5C000000,-0724,0822,12281,026.1,045.4,0.478,735.5,01.18,0.508
2015-08-12 00:32:00,1664E-3,5C000000,-0724,0821,12266,026.1,045.4,0.478,735.4,01.18,0.508
2015-08-12 00:33:00,1598E-3,5C000000,-0724,0821,12312,026.1,045.4,0.479,735.5,01.18,0.508
2015-08-12 00:34:00,1690E-3,5C000000,-0724,0821,12294,026.1,045.4,0.479,735.4,01.18,0.508
2015-08-12 00:35:00,1687E-3,5C000000,-0724,0821,12162,026.2,045.4,0.478,735.5,01.18,0.508
2015-08-12 00:36:00,1597E-3,5C000000,-0724,0821,12325,026.1,045.4,0.478,735.5,01.18,0.508
2015-08-12 00:37:00,1568E-3,5C000000,-0724,0821,12333,026.2,045.4,0.478,735.5,01.18,0.508
2015-08-12 00:38:00,1729E-3,5C000000,-0724,0821,12312,026.2,045.4,0.478,735.5,01.18,0.508
2015-08-12 00:39:00,1500E-3,5C000000,-0724,0821,12244,026.2,045.4,0.478,735.5,01.18,0.508
2015-08-12 00:40:00,1670E-3,5C000000,-0724,0821,12393,026.1,045.4,0.478,735.5,01.18,0.508
2015-08-12 00:41:00,1630E-3,5C000000,-0724,0821,12301,026.2,045.4,0.478,735.5,01.18,0.508
2015-08-12 00:42:00,1631E-3,5C000000,-0724,0821,12250,026.2,045.4,0.478,735.5,01.18,0.508
2015-08-12 00:43:00,1720E-3,5C000000,-0724,0820,12303,026.2,045.4,0.478,735.5,01.18,0.508
2015-08-12 00:44:00,1604E-3,5C000000,-0724,0821,12187,026.2,045.4,0.478,735.4,01.18,0.508
2015-08-12 00:45:00,1557E-3,5C000000,-0724,0821,12315,026.2,045.4,0.478,735.5,01.18,0.508
2015-08-12 00:46:00,1728E-3,5C000000,-0724,0821,12207,026.2,045.4,0.478,735.5,01.18,0.508
2015-08-12 00:47:00,1616E-3,5C000000,-0724,0820,12264,026.1,045.4,0.478,735.4,01.18,0.508
2015-08-12 00:48:00,1593E-3,5C000000,-0724,0821,12306,026.2,045.4,0.478,735.5,01.18,0.508
2015-08-12 00:49:00,1701E-3,5C000000,-0724,0822,12399,026.2,045.4,0.478,735.4,01.18,0.508
2015-08-12 00:50:00,1721E-3,5C000000,-0724,0821,12310,026.2,045.4,0.478,735.5,01.18,0.508
2015-08-12 00:51:00,1604E-3,5C000000,-0724,0821,12372,026.2,045.4,0.478,735.5,01.18,0.508
2015-08-12 00:52:00,1603E-3,5C000000,-0724,0820,12188,026.2,045.4,0.478,735.5,01.18,0.508
2015-08-12 00:53:00,1571E-3,5C000000,-0724,0821,12206,026.2,045.4,0.478,735.4,01.18,0.508
2015-08-12 00:54:00,1580E-3,5C000000,-0724,0821,12330,026.2,045.4,0.478,735.4,01.18,0.508
2015-08-12 00:55:00,1498E-3,5C000000,-0724,0822,12315,026.1,045.4,0.478,735.4,01.18,0.508
2015-08-12 00:56:00,1632E-3,5C000000,-0724,0820,12185,026.2,045.4,0.478,735.4,01.18,0.508
2015-08-12 00:57:00,1582E-3,5C000000,-0724,0822,12255,026.2,045.4,0.478,735.4,01.18,0.508
2015-08-12 00:58:00,1688E-3,5C000000,-0724,0821,12126,026.2,045.4,0.478,735.4,01.18,0.508
2015-08-12 00:59:00,1608E-3,5C000000,-0724,0821,12430,026.2,045.4,0.478,735.4,01.18,0.508
2015-08-12 01:00:00,1639E-3,5C000000,-0724,0822,12219,026.2,045.4,0.478,735.4,01.18,0.508
2015-08-12 01:01:00,1516E-3,5C000000,-0724,0821,12269,026.2,045.4,0.478,735.4,01.18,0.508
2015-08-12 01:02:00,1605E-3,5C000000,-0724,0822,12360,026.2,045.4,0.478,735.4,01.18,0.508
2015-08-12 01:03:00,1710E-3,5C000000,-0724,0821,12360,026.2,045.4,0.478,735.3,01.18,0.508
2015-08-12 01:04:00,1603E-3,5C000000,-0724,0821,12286,026.2,045.4,0.478,735.4,01.18,0.508
2015-08-12 01:05:00,1526E-3,5C000000,-0724,0821,12420,026.2,045.4,0.478,735.4,01.18,0.508
2015-08-12 01:06:00,1644E-3,5C000000,-0724,0821,12403,026.2,045.4,0.478,735.4,01.18,0.508
2015-08-12 01:07:00,1612E-3,5C000000,-0724,0821,12323,026.2,045.4,0.478,735.4,01.18,0.508
2015-08-12 01:08:00,1709E-3,5C000000,-0724,0822,12311,026.2,045.4,0.478,735.4,01.18,0.508
2015-08-12 01:09:00,1625E-3,5C000000,-0724,0821,12319,026.2,045.4,0.478,735.4,01.18,0.508
2015-08-12 01:10:00,1584E-3,5C000000,-0724,0821,12217,026.2,045.4,0.478,735.5,01.18,0.508
2015-08-12 01:11:00,1610E-3,5C000000,-0724,0821,12404,026.2,045.4,0.478,735.4,01.18,0.508
2015-08-12 01:12:00,1661E-3,5C000000,-0724,0821,12233,026.2,045.4,0.478,735.4,01.18,0.508
2015-08-12 01:13:00,1625E-3,5C000000,-0724,0821,12399,026.2,045.4,0.478,735.4,01.18,0.508
2015-08-12 01:14:00,1647E-3,5C000000,-0724,0820,12319,026.2,045.4,0.478,735.4,01.18,0.508
2015-08-12 01:15:00,1871E-3,5C000000,-0724,0821,12276,026.2,045.4,0.478,735.4,01.18,0.508
2015-08-12 01:16:00,1666E-3,5C000000,-0724,0822,12379,026.2,045.4,0.478,735.4,01.18,0.508
2015-08-12 01:17:00,1687E-3,5C000000,-0724,0821,12443,026.2,045.4,0.478,735.4,01.18,0.508
2015-08-12 01:18:00,1646E-3,5C000000,-0724,0822,12215,026.2,045.4,0.478,735.4,01.18,0.508
2015-08-12 01:19:00,1556E-3,5C000000,-0724,0821,12354,026.2,045.4,0.478,735.4,01.18,0.508
2015-08-12 01:20:00,1587E-3,5C000000,-0724,0820,12342,026.2,045.4,0.478,735.3,01.18,0.508
2015-08-12 01:21:00,1689E-3,5C000000,-0724,0821,12287,026.2,045.4,0.478,735.3,01.18,0.508
2015-08-12 01:22:00,1602E-3,5C000000,-0724,0821,12263,026.2,045.4,0.478,735.3,01.18,0.508
2015-08-12 01:23:00,1678E-3,5C000000,-0724,0821,12320,026.2,045.4,0.478,735.3,01.18,0.508
2015-08-12 01:24:00,1614E-3,5C000000,-0724,0821,12222,026.2,045.4,0.478,735.3,01.18,0.508
2015-08-12 01:25:00,1695E-3,5C000000,-0724,0822,12360,026.2,045.4,0.478,735.3,01.18,0.508
2015-08-12 01:26:00,1575E-3,5C000000,-0724,0821,12176,026.2,045.4,0.478,735.3,01.18,0.508
2015-08-12 01:27:00,1650E-3,5C000000,-0724,0821,12307,026.2,045.4,0.478,735.3,01.18,0.508
2015-08-12 01:28:00,1581E-3,5C000000,-0724,0821,12198,026.2,045.4,0.478,735.2,01.18,0.508
2015-08-12 01:29:00,1703E-3,5C000000,-0724,0822,12264,026.2,045.4,0.478,735.2,01.18,0.508
2015-08-12 01:30:00,1622E-3,5C000000,-0724,0822,12239,026.2,045.4,0.478,735.2,01.18,0.508
2015-08-12 01:31:00,1641E-3,5C000000,-0724,0821,12214,026.2,045.4,0.478,735.2,01.18,0.508
2015-08-12 01:32:00,1636E-3,5C000000,-0724,0821,12335,026.2,045.4,0.478,735.1,01.18,0.508
2015-08-12 01:33:00,1565E-3,5C000000,-0724,0821,12373,026.2,045.4,0.478,735.2,01.18,0.508
2015-08-12 01:34:00,1665E-3,5C000000,-0724,0821,12375,026.2,045.4,0.478,735.2,01.18,0.508
2015-08-12 01:35:00,1672E-3,5C000000,-0724,0821,12337,026.2,045.4,0.478,735.2,01.18,0.508
2015-08-12 01:36:00,1644E-3,5C000000,-0724,0821,12210,026.2,045.4,0.478,735.2,01.18,0.508
2015-08-12 01:37:00,1583E-3,5C000000,-0724,0821,12248,026.2,045.4,0.478,735.2,01.18,0.508
2015-08-12 01:38:00,1591E-3,5C000000,-0724,0822,12233,026.2,045.4,0.478,735.2,01.18,0.508
2015-08-12 01:39:00,1711E-3,5C000000,-0724,0822,12242,026.2,045.4,0.478,735.2,01.18,0.508
2015-08-12 01:40:00,1611E-3,5C000000,-0724,0821,12132,026.3,045.4,0.478,735.2,01.18,0.508
2015-08-12 01:41:00,1671E-3,5C000000,-0724,0822,12276,026.2,045.4,0.478,735.2,01.18,0.508
2015-08-12 01:42:00,1706E-3,5C000000,-0724,0821,12203,026.3,045.4,0.478,735.2,01.18,0.508
2015-08-12 01:43:00,1648E-3,5C000000,-0724,0821,12370,026.2,045.4,0.478,735.2,01.18,0.508
2015-08-12 01:44:00,1613E-3,5C000000,-0724,0821,12266,026.3,045.4,0.478,735.1,01.18,0.508
2015-08-12 01:45:00,1456E-3,5C000000,-0724,0821,12331,026.3,045.4,0.478,735.2,01.18,0.508
2015-08-12 01:46:00,1613E-3,5C000000,-0724,0821,12340,026.3,045.4,0.478,735.2,01.18,0.508
2015-08-12 01:47:00,1611E-3,5C000000,-0724,0821,12393,026.3,045.4,0.478,735.1,01.18,0.508
2015-08-12 01:48:00,1616E-3,5C000000,-0724,0820,12268,026.2,045.4,0.478,735.1,01.18,0.508
2015-08-12 01:49:00,1698E-3,5C000000,-0724,0821,12272,026.3,045.4,0.478,735.1,01.18,0.508
2015-08-12 01:50:00,1642E-3,5C000000,-0724,0821,12400,026.3,045.4,0.478,735.1,01.18,0.508
2015-08-12 01:51:00,1730E-3,5C000000,-0724,0820,12366,026.3,045.4,0.478,735.1,01.18,0.508
2015-08-12 01:52:00,1692E-3,5C000000,-0724,0821,12281,026.3,045.4,0.478,735.1,01.18,0.508
2015-08-12 01:53:00,1706E-3,5C000000,-0724,0820,12372,026.3,045.4,0.478,735.1,01.18,0.508
2015-08-12 01:54:00,1699E-3,5C000000,-0724,0821,12319,026.3,045.4,0.478,735.1,01.18,0.508
2015-08-12 01:55:00,1780E-3,5C000000,-0724,0821,12148,026.3,045.4,0.478,735.1,01.18,0.508
2015-08-12 01:56:00,1574E-3,5C000000,-0724,0820,12303,026.2,045.4,0.478,735.1,01.18,0.508
2015-08-12 01:57:00,1481E-3,5C000000,-0724,0821,12371,026.3,045.4,0.478,735.1,01.18,0.508
2015-08-12 01:58:00,1702E-3,5C000000,-0724,0821,12299,026.3,045.4,0.478,735.1,01.18,0.508
2015-08-12 01:59:00,1581E-3,5C000000,-0724,0820,12186,026.3,045.4,0.478,735.1,01.18,0.508
2015-08-12 02:00:00,1634E-3,5C000000,-0724,0820,12267,026.3,045.4,0.478,735.1,01.18,0.508
2015-08-12 02:01:00,1620E-3,5C000000,-0724,0819,12246,026.3,045.4,0.478,735.1,01.18,0.508
2015-08-12 02:02:00,1417E-3,5C000000,-0724,0820,12257,026.3,045.4,0.478,735.1,01.18,0.508
2015-08-12 02:03:00,1542E-3,5C000000,-0724,0820,12247,026.3,045.4,0.478,735.1,01.18,0.508
2015-08-12 02:04:00,1636E-3,5C000000,-0724,0820,12401,026.3,045.4,0.478,735.1,01.18,0.508
2015-08-12 02:05:00,1758E-3,5C000000,-0724,0821,12229,026.3,045.4,0.478,735.1,01.18,0.508
2015-08-12 02:06:00,1716E-3,5C000000,-0724,0820,12358,026.3,045.4,0.478,735.1,01.18,0.508
2015-08-12 02:07:00,1662E-3,5C000000,-0724,0822,12311,026.3,045.4,0.478,735.1,01.18,0.508
2015-08-12 02:08:00,1653E-3,5C000000,-0724,0821,12145,026.3,045.4,0.478,735.1,01.18,0.508
2015-08-12 02:09:00,1646E-3,5C000000,-0724,0821,12216,026.3,045.4,0.478,735.1,01.18,0.508
2015-08-12 02:10:00,1657E-3,5C000000,-0724,0821,12181,026.3,045.4,0.478,735.0,01.18,0.508
2015-08-12 02:11:00,1597E-3,5C000000,-0724,0821,12250,026.3,045.4,0.478,735.1,01.18,0.508
2015-08-12 02:12:00,1750E-3,5C000000,-0724,0821,12433,026.3,045.4,0.478,735.0,01.18,0.508
2015-08-12 02:13:00,1573E-3,5C000000,-0724,0821,12390,026.3,045.4,0.478,735.0,01.18,0.508
2015-08-12 02:14:00,1694E-3,5C000000,-0724,0821,12385,026.3,045.4,0.478,735.0,01.18,0.508
2015-08-12 02:15:00,1625E-3,5C000000,-0724,0821,12269,026.3,045.4,0.478,735.0,01.18,0.508
2015-08-12 02:16:00,1640E-3,5C000000,-0724,0821,12320,026.3,045.4,0.478,735.0,01.18,0.508
2015-08-12 02:17:00,1573E-3,5C000000,-0724,0821,12207,026.3,045.4,0.478,735.0,01.18,0.508
2015-08-12 02:18:00,1573E-3,5C000000,-0724,0821,12164,026.3,045.4,0.478,735.0,01.18,0.508
2015-08-12 02:19:00,1707E-3,5C000000,-0724,0821,12264,026.3,045.4,0.478,735.0,01.18,0.508
2015-08-12 02:20:00,1739E-3,5C000000,-0724,0821,12211,026.4,045.4,0.478,735.0,01.18,0.508
2015-08-12 02:21:00,1642E-3,5C000000,-0724,0821,12293,026.3,045.4,0.478,735.0,01.18,0.508
2015-08-12 02:22:00,1574E-3,5C000000,-0724,0821,12336,026.3,045.4,0.478,735.0,01.18,0.508
2015-08-12 02:23:00,1773E-3,5C000000,-0724,0821,12213,026.3,045.4,0.478,735.0,01.18,0.508
2015-08-12 02:24:00,1681E-3,5C000000,-0724,0821,12208,026.3,045.4,0.478,735.0,01.18,0.508
2015-08-12 02:25:00,1667E-3,5C000000,-0724,0821,12337,026.3,045.4,0.478,735.0,01.18,0.508
2015-08-12 02:26:00,1780E-3,5C000000,-0724,0821,12229,026.3,045.4,0.478,735.0,01.18,0.508
2015-08-12 02:27:00,1644E-3,5C000000,-0724,0821,12390,026.3,045.4,0.478,734.9,01.18,0.508
2015-08-12 02:28:00,1545E-3,5C000000,-0724,0821,12375,026.4,045.4,0.478,735.0,01.18,0.508
2015-08-12 02:29:00,1722E-3,5C000000,-0724,0820,12175,026.3,045.4,0.478,735.0,01.18,0.508
2015-08-12 02:30:00,1516E-3,5C000000,-0724,0821,12255,026.3,045.4,0.478,735.0,01.18,0.508
2015-08-12 02:31:00,1575E-3,5C000000,-0724,0821,12216,026.3,045.4,0.478,735.0,01.18,0.508
2015-08-12 02:32:00,1523E-3,5C000000,-0724,0822,12199,026.4,045.4,0.478,735.0,01.18,0.508
2015-08-12 02:33:00,1690E-3,5C000000,-0724,0821,12336,026.4,045.4,0.477,734.9,01.18,0.508
2015-08-12 02:34:00,1553E-3,5C000000,-0724,0821,12278,026.3,045.4,0.478,734.9,01.18,0.508
2015-08-12 02:35:00,1721E-3,5C000000,-0724,0820,12329,026.4,045.4,0.478,734.9,01.18,0.508
2015-08-12 02:36:00,1599E-3,5C000000,-0724,0821,12105,026.3,045.4,0.478,734.9,01.18,0.508
2015-08-12 02:37:00,1550E-3,5C000000,-0724,0821,12389,026.4,045.4,0.478,734.9,01.18,0.508
2015-08-12 02:38:00,1547E-3,5C000000,-0724,0820,12220,026.4,045.4,0.478,734.9,01.18,0.508
2015-08-12 02:39:00,1614E-3,5C000000,-0724,0820,12312,026.3,045.4,0.478,734.9,01.18,0.508
2015-08-12 02:40:00,1578E-3,5C000000,-0724,0821,12308,026.4,045.4,0.478,734.9,01.18,0.508
2015-08-12 02:41:00,1664E-3,5C000000,-0724,0821,12247,026.4,045.4,0.477,734.9,01.18,0.508
2015-08-12 02:42:00,1763E-3,5C000000,-0724,0821,12370,026.4,045.4,0.478,735.0,01.18,0.508
2015-08-12 02:43:00,1489E-3,5C000000,-0724,0821,12360,026.4,045.4,0.478,734.9,01.18,0.508
2015-08-12 02:44:00,1719E-3,5C000000,-0724,0821,12322,026.4,045.4,0.478,734.9,01.18,0.508
2015-08-12 02:45:00,1586E-3,5C000000,-0724,0821,12215,026.4,045.4,0.478,734.9,01.18,0.508
2015-08-12 02:46:00,1552E-3,5C000000,-0724,0822,12463,026.4,045.4,0.478,734.9,01.18,0.508
2015-08-12 02:47:00,1510E-3,5C000000,-0724,0821,12325,026.4,045.4,0.478,734.9,01.18,0.508
2015-08-12 02:48:00,1675E-3,5C000000,-0724,0822,12324,026.4,045.4,0.478,734.9,01.18,0.508
2015-08-12 02:49:00,1663E-3,5C000000,-0724,0821,12360,026.4,045.4,0.477,735.0,01.18,0.508
2015-08-12 02:50:00,1598E-3,5C000000,-0724,0822,12224,026.4,045.4,0.477,734.9,01.18,0.508
2015-08-12 02:51:00,1556E-3,5C000000,-0724,0821,12300,026.4,045.4,0.478,734.9,01.18,0.508
2015-08-12 02:52:00,1569E-3,5C000000,-0724,0822,12300,026.4,045.4,0.478,734.9,01.18,0.508
2015-08-12 02:53:00,1626E-3,5C000000,-0724,0821,12351,026.4,045.4,0.478,734.9,01.18,0.508
2015-08-12 02:54:00,1649E-3,5C000000,-0724,0821,12239,026.4,045.4,0.478,734.9,01.18,0.508
2015-08-12 02:55:00,1631E-3,5C000000,-0724,0822,12206,026.4,045.4,0.478,734.9,01.18,0.508
2015-08-12 02:56:00,1652E-3,5C000000,-0724,0821,12236,026.4,045.4,0.478,734.9,01.18,0.508
2015-08-12 02:57:00,1559E-3,5C000000,-0724,0821,12217,026.4,045.4,0.477,734.9,01.18,0.508
2015-08-12 02:58:00,1665E-3,5C000000,-0724,0821,12323,026.4,045.4,0.477,734.9,01.18,0.508
2015-08-12 02:59:00,1569E-3,5C000000,-0724,0822,12298,026.4,045.4,0.478,734.8,01.18,0.508
2015-08-12 03:00:00,1678E-3,5C000000,-0724,0821,12289,026.4,045.4,0.478,734.9,01.18,0.508
2015-08-12 03:01:00,1614E-3,5C000000,-0724,0821,12418,026.5,045.4,0.478,734.8,01.18,0.508
2015-08-12 03:02:00,1607E-3,5C000000,-0724,0821,12300,026.5,045.4,0.478,734.8,01.18,0.508
2015-08-12 03:03:00,1862E-3,5C000000,-0724,0821,12278,026.5,045.4,0.478,734.8,01.18,0.508
2015-08-12 03:04:00,1571E-3,5C000000,-0724,0821,12268,026.5,045.4,0.478,734.8,01.18,0.508
2015-08-12 03:05:00,1633E-3,5C000000,-0724,0821,12238,026.5,045.4,0.477,734.8,01.18,0.508
2015-08-12 03:06:00,1539E-3,5C000000,-0724,0821,12249,026.5,045.4,0.477,734.8,01.18,0.508
2015-08-12 03:07:00,1702E-3,5C000000,-0724,0821,12298,026.5,045.4,0.477,734.8,01.18,0.508
2015-08-12 03:08:00,1636E-3,5C000000,-0724,0821,12228,026.5,045.4,0.478,734.8,01.18,0.508
2015-08-12 03:09:00,1665E-3,5C000000,-0724,0821,12540,026.5,045.4,0.478,734.8,01.18,0.508
2015-08-12 03:10:00,1555E-3,5C000000,-0724,0821,12153,026.5,045.4,0.478,734.8,01.18,0.508
2015-08-12 03:11:00,1624E-3,5C000000,-0724,0821,12330,026.5,045.4,0.478,734.8,01.18,0.508
2015-08-12 03:12:00,1859E-3,5C000000,-0724,0820,12210,026.5,045.4,0.478,734.8,01.18,0.508
2015-08-12 03:13:00,1519E-3,5C000000,-0724,0821,12200,026.5,045.4,0.477,734.8,01.18,0.508
2015-08-12 03:14:00,1525E-3,5C000000,-0724,0821,12353,026.5,045.4,0.477,734.8,01.18,0.508
2015-08-12 03:15:00,1557E-3,5C000000,-0724,0821,12261,026.5,045.5,0.477,734.8,01.18,0.508
2015-08-12 03:16:00,1663E-3,5C000000,-0724,0822,12257,026.6,045.4,0.478,734.7,01.18,0.508
2015-08-12 03:17:00,1608E-3,5C000000,-0724,0821,12182,026.5,045.4,0.478,734.8,01.18,0.508
2015-08-12 03:18:00,1655E-3,5C000000,-0724,0820,12249,026.5,045.4,0.478,734.7,01.18,0.508
2015-08-12 03:19:00,1678E-3,5C000000,-0724,0821,12436,026.5,045.4,0.478,734.7,01.18,0.508
2015-08-12 03:20:00,1807E-3,5C000000,-0724,0821,12256,026.6,045.4,0.478,734.7,01.18,0.508
2015-08-12 03:21:00,1569E-3,5C000000,-0724,0820,12283,026.6,045.4,0.477,734.7,01.18,0.508
2015-08-12 03:22:00,1531E-3,5C000000,-0724,0821,12214,026.6,045.4,0.477,734.7,01.18,0.508
2015-08-12 03:23:00,1662E-3,5C000000,-0724,0821,12257,026.6,045.4,0.477,734.7,01.18,0.508
2015-08-12 03:24:00,1684E-3,5C000000,-0724,0821,12175,026.6,045.4,0.477,734.7,01.18,0.508
2015-08-12 03:25:00,1671E-3,5C000000,-0724,0821,12253,026.6,045.4,0.478,734.7,01.18,0.508
2015-08-12 03:26:00,1632E-3,5C000000,-0724,0822,12281,026.6,045.4,0.478,734.7,01.18,0.508
2015-08-12 03:27:00,1560E-3,5C000000,-0724,0821,12279,026.6,045.4,0.478,734.7,01.18,0.508
2015-08-12 03:28:00,1722E-3,5C000000,-0724,0822,12216,026.6,045.4,0.478,734.7,01.18,0.508
2015-08-12 03:29:00,1650E-3,5C000000,-0724,0821,12285,026.6,045.4,0.477,734.7,01.18,0.508
2015-08-12 03:30:00,1675E-3,5C000000,-0724,0821,12227,026.6,045.4,0.477,734.7,01.18,0.508
2015-08-12 03:31:00,1670E-3,5C000000,-0724,0821,12397,026.6,045.4,0.477,734.7,01.18,0.508
2015-08-12 03:32:00,1627E-3,5C000000,-0724,0821,12311,026.6,045.4,0.477,734.7,01.18,0.508
2015-08-12 03:33:00,1628E-3,5C000000,-0724,0820,12108,026.6,045.4,0.478,734.6,01.18,0.508
2015-08-12 03:34:00,1583E-3,5C000000,-0724,0821,12259,026.6,045.4,0.478,734.6,01.18,0.508
2015-08-12 03:35:00,1600E-3,5C000000,-0724,0821,12272,026.6,045.5,0.478,734.7,01.18,0.508
2015-08-12 03:36:00,1678E-3,5C000000,-0724,0821,12343,026.6,045.4,0.477,734.6,01.18,0.508
2015-08-12 03:37:00,1628E-3,5C000000,-0724,0820,12307,026.6,045.4,0.477,734.7,01.18,0.508
2015-08-12 03:38:00,1620E-3,5C000000,-0724,0820,12261,026.6,045.4,0.477,734.7,01.18,0.508
2015-08-12 03:39:00,1620E-3,5C000000,-0724,0819,12264,026.6,045.4,0.477,734.7,01.18,0.508
2015-08-12 03:40:00,1611E-3,5C000000,-0724,0820,12224,026.6,045.4,0.478,734.7,01.18,0.508
2015-08-12 03:41:00,1685E-3,5C000000,-0724,0820,12196,026.6,045.4,0.478,734.7,01.18,0.508
2015-08-12 03:42:00,1601E-3,5C000000,-0724,0820,12387,026.6,045.4,0.477,734.6,01.18,0.508
2015-08-12 03:43:00,1585E-3,5C000000,-0724,0820,12346,026.6,045.4,0.477,734.7,01.18,0.508
2015-08-12 03:44:00,1719E-3,5C000000,-0724,0821,12401,026.6,045.4,0.477,734.6,01.18,0.508
2015-08-12 03:45:00,1583E-3,5C000000,-0724,0820,12265,026.7,045.4,0.477,734.6,01.18,0.508
2015-08-12 03:46:00,1702E-3,5C000000,-0724,0821,12198,026.7,045.4,0.477,734.7,01.18,0.508
2015-08-12 03:47:00,1532E-3,5C000000,-0724,0820,12273,026.7,045.4,0.477,734.6,01.18,0.508
2015-08-12 03:48:00,1701E-3,5C000000,-0724,0821,12366,026.6,045.4,0.477,734.6,01.18,0.508
2015-08-12 03:49:00,1644E-3,5C000000,-0724,0821,12162,026.7,045.4,0.477,734.6,01.18,0.508
2015-08-12 03:50:00,1699E-3,5C000000,-0724,0820,12446,026.7,045.4,0.478,734.6,01.18,0.508
2015-08-12 03:51:00,1601E-3,5C000000,-0724,0820,12368,026.7,045.4,0.477,734.7,01.18,0.508
2015-08-12 03:52:00,1556E-3,5C000000,-0724,0819,12277,026.7,045.4,0.477,734.6,01.18,0.508
2015-08-12 03:53:00,1606E-3,5C000000,-0724,0820,12247,026.7,045.4,0.477,734.6,01.18,0.508
2015-08-12 03:54:00,1795E-3,5C000000,-0724,0820,12232,026.7,045.4,0.477,734.6,01.18,0.508
2015-08-12 03:55:00,1675E-3,5C000000,-0724,0820,12165,026.7,045.4,0.477,734.6,01.18,0.508
2015-08-12 03:56:00,1475E-3,5C000000,-0724,0821,12246,026.7,045.4,0.477,734.7,01.18,0.508
2015-08-12 03:57:00,1642E-3,5C000000,-0724,0821,12329,026.7,045.4,0.477,734.6,01.18,0.508
2015-08-12 03:58:00,1501E-3,5C000000,-0724,0821,12300,026.7,045.4,0.478,734.6,01.18,0.508
2015-08-12 03:59:00,1597E-3,5C000000,-0724,0820,12296,026.7,045.4,0.478,734.6,01.18,0.508
2015-08-12 04:00:00,1588E-3,5C000000,-0724,0820,12366,026.7,045.4,0.477,734.6,01.18,0.508
2015-08-12 04:01:00,1672E-3,5C000000,-0724,0820,12292,026.7,045.4,0.477,734.6,01.18,0.508
2015-08-12 04:02:00,1577E-3,5C000000,-0724,0820,12228,026.7,045.4,0.477,734.6,01.18,0.508
2015-08-12 04:03:00,1573E-3,5C000000,-0724,0820,12317,026.7,045.4,0.477,734.6,01.18,0.508
2015-08-12 04:04:00,1573E-3,5C000000,-0724,0821,12279,026.7,045.4,0.477,734.6,01.18,0.508
2015-08-12 04:05:00,1671E-3,5C000000,-0724,0819,12290,026.7,045.4,0.477,734.6,01.18,0.508
2015-08-12 04:06:00,1511E-3,5C000000,-0724,0822,12334,026.7,045.4,0.477,734.6,01.18,0.508
2015-08-12 04:07:00,1556E-3,5C000000,-0724,0820,12414,026.7,045.4,0.478,734.6,01.18,0.508
2015-08-12 04:08:00,1560E-3,5C000000,-0724,0820,12253,026.7,045.4,0.478,734.5,01.18,0.508
2015-08-12 04:09:00,1642E-3,5C000000,-0724,0820,12288,026.7,045.4,0.477,734.5,01.18,0.508
2015-08-12 04:10:00,1660E-3,5C000000,-0724,0820,12350,026.7,045.4,0.477,734.5,01.18,0.508
2015-08-12 04:11:00,1597E-3,5C000000,-0724,0821,12238,026.7,045.4,0.477,734.5,01.18,0.508
2015-08-12 04:12:00,1636E-3,5C000000,-0724,0820,12150,026.7,045.4,0.477,734.5,01.18,0.508
2015-08-12 04:13:00,1553E-3,5C000000,-0724,0821,12271,026.7,045.4,0.477,734.5,01.18,0.508
2015-08-12 04:14:00,1605E-3,5C000000,-0724,0821,12294,026.7,045.4,0.477,734.5,01.18,0.508
2015-08-12 04:15:00,1814E-3,5C000000,-0724,0820,12326,026.7,045.4,0.477,734.5,01.18,0.508
2015-08-12 04:16:00,1564E-3,5C000000,-0724,0820,12395,026.7,045.4,0.477,734.5,01.18,0.508
2015-08-12 04:17:00,1551E-3,5C000000,-0724,0821,12194,026.7,045.4,0.477,734.4,01.18,0.508
2015-08-12 04:18:00,1659E-3,5C000000,-0724,0820,12303,026.7,045.4,0.477,734.4,01.18,0.508
2015-08-12 04:19:00,1573E-3,5C000000,-0724,0820,12124,026.7,045.4,0.477,734.5,01.18,0.508
2015-08-12 04:20:00,1499E-3,5C000000,-0724,0820,12262,026.8,045.4,0.477,734.5,01.18,0.508